Zurück zum Katalog

ARIANE 2 DEB

LostGTO
NORAD 27030·DEBRIS·🇫🇷 France

Gestartet Jan 27, 1989 von Guiana Space Centre

Loading…

TLE

VeraltetSource: Space-Track

Epoche: Jun 27, 2026, 14:57 UTC

1 27030U 89006K   26178.62323568  .00000864  00000-0  57925-2 0  9992
2 27030   8.6012 314.6808 7105246 318.6721   5.2474  2.37516119210228

Verfolge ARIANE 2 DEB in Echtzeit mit AllMySat

Download on the App Store